Showing default

MBZ-SAT, 62626

Orbit data source: Space-Track

MBZ-SAT, 62626 is a payload satellite owned by Rashid Space Ctr (AE) in SSO that was launched on Tue, 14 Jan 2025 UTC via an FALCON 9 launch vehicle from the Air Force Western Test Range (AFWTR). Payload-class satellites include a variety of spacecraft equipped with specific instruments for various scientific and technological missions. These include communications satellites like Starlink; space stations such as the ISS; scientific satellites like the Hubble; Earth observation satellites from companies like Planet Labs, Umbra, and HawkEye 360; GPS; miniature CubeSats for education and research; and military/defense satellites.

Loading next visibility...
Identifier
62626, 2025-009T
Orbit
SSO
Country
Flag of AEAE / UAE
Related business
Manufacturer
Rashid Space Ctr
Mission
Operational Civil Imaging
Bus & Motor
MBZSAT, Unknown motor
Mass
750 kg wet, ~700 kg dry
Launch date (UTC)
2025-01-14 (9 months ago)
Launch vehicle
FALCON 9
Launch site
Air Force Western Test Range (AFWTR)
Object type
Payload
Rocket body
Debris
Shape & HBR
Hex Cyl + 4 Pan, 2.3 m
Radar Cross Section
14.173 m², Large (>1 m²)

Expand to show TLE details & history
Last TLE update: 1 day ago

TLE from 1 day ago
0 MBZ-SAT
1 62626U 25009T   25300.49106006  .00000583  00000-0  30918-4 0  9995
2 62626  97.4190  18.5298 0005431  93.7965 266.3890 15.19169722 43373
Epoch: 2025-10-27T11:47Z
TLE epoch observation values (Epoch: 2025-10-27T11:47:07.589Z)
Latitude
-0.00008°
Longitude
165.65604°
Altitude
511.675 km
Speed
7.608 km/s
True Right ascension
01h 14m 07s
True Declination
0° 00' 00"
Sunlit
Object was in full shadow at epoch
Visualization orbit readout
Latitude
Unknown
Longitude
Unknown
Altitude
Unknown
Speed
Unknown
Apparent Right ascension
Unknown
Apparent Declination
Unknown
Sunlit
N/A
Visualization observer readout
Local Sidereal Time
10:09:21
Azimuth
Unknown
Elevation
Unknown
Doppler factor
Unknown
Orbital elements
Apogee altitude
509.055 km
Perigee altitude
501.578 km
Semi-major axis
6,883.453 km
Eccentricity
0.00054
Inclination
97.419°
RAAN
18.5298°
Arg. of periapsis
93.7965°
True anomaly
266.32689°
Mean anomaly
266.389°
Eccentric anomaly
266.35795°
Mean motion
3.80044 °/min
Orbital period
94.73 mins
BSTAR
0.000030918
Loading maneuver chart data...
Computing Atmospheric mass density...
Loading historical data...
Loading historical data...
Loading historical data...
Loading historical data...
Loading historical data...
Loading historical data...
Loading historical data...

Documentation

Showing up to 5 results
|